This is the latest recevied weather packets stored in our database for station/object KC5AV. If no packets are shown the sender has not sent any weather packets the latest 10 day(s).
| Time | Temp. | Humidity | Pressure | Rain* | Wind** | Luminosity | Snow |
|---|---|---|---|---|---|---|---|
| 1778158122 | 12.22° C | 89% | 1020 hPa | 0 mm | - | 81 W/m² | - |
| 1778157818 | 11.67° C | 89% | 1019.8 hPa | 0 mm | - | 74 W/m² | - |
| 1778157517 | 11.67° C | 90% | 1019.7 hPa | 0 mm | - | 80 W/m² | - |
| 1778157214 | 11.67° C | 91% | 1019.8 hPa | 0 mm | - | 64 W/m² | - |
| 1778156910 | 11.67° C | 91% | 1019.6 hPa | 0 mm | - | 59 W/m² | - |
| 1778156605 | 11.67° C | 91% | 1019.3 hPa | 0 mm | - | 40 W/m² | - |
| 1778156302 | 11.11° C | 92% | 1019.3 hPa | 0 mm | - | 41 W/m² | - |
| 1778155997 | 11.11° C | 92% | 1019.6 hPa | 0 mm | - | 39 W/m² | - |
| 1778155694 | 11.11° C | 92% | 1019.1 hPa | 0 mm | - | 28 W/m² | - |
| 1778155391 | 11.11° C | 92% | 1019.1 hPa | 0 mm | - | 22 W/m² | - |
| 1778155087 | 11.11° C | 92% | 1019.1 hPa | 0 mm | - | 24 W/m² | - |
| 1778154783 | 11.11° C | 92% | 1019 hPa | 0 mm | - | 18 W/m² | - |
| 1778154479 | 11.11° C | 92% | 1019.1 hPa | 0 mm | - | 11 W/m² | - |
| 1778154176 | 10.56° C | 92% | 1018.8 hPa | 0 mm | - | 8 W/m² | - |
| 1778153873 | 10.56° C | 92% | 1018.8 hPa | 0 mm | - | 6 W/m² | - |
| 1778153570 | 11.11° C | 92% | 1018.6 hPa | 0 mm | - | 3 W/m² | - |
| 1778153268 | 11.11° C | 92% | 1018.3 hPa | 0 mm | - | 2 W/m² | - |
| 1778152964 | 11.11° C | 91% | 1018.4 hPa | 0 mm | - | 1 W/m² | - |
| 1778152663 | 11.11° C | 91% | 1018.2 hPa | 0 mm | - | 0 W/m² | - |
| 1778152359 | 11.11° C | 91% | 1018.2 hPa | 0 mm | - | 0 W/m² | - |
| 1778152055 | 11.11° C | 91% | 1018 hPa | 0 mm | - | 0 W/m² | - |
| 1778151752 | 11.11° C | 91% | 1018 hPa | 0 mm | - | 0 W/m² | - |
| 1778151448 | 11.11° C | 91% | 1017.9 hPa | 0 mm | - | 0 W/m² | - |
| 1778151144 | 11.11° C | 91% | 1017.8 hPa | 0 mm | - | 0 W/m² | - |
| 1778150842 | 11.11° C | 91% | 1017.7 hPa | 0 mm | - | 0 W/m² | - |
* Rain latest hour (hover to see other rain measurements)
** Current wind speed in m/s (hover to see current wind gust speed)